Location: Rounton
(54.4000°N, 1.3500°W)
Time: 22:56:23
(UTC+00:00)

Vanguard 3 - Pass Details

Date: 04 December 2021
Orbit: 508 x 3260 km, 33.3° (Epoch: 17 January)

Event Time Altitude Azimuth Distance (km) Brightness Sun altitude
Rises 02:04:13 0° 198° (SSW) 6,918 - -49.8°
Reaches altitude 10° 02:10:40 10° 184° (S) 6,115 - -49.1°
Exits shadow 02:17:42 18° 164° (SSE) 5,494 11.1 -48.3°
Maximum altitude 02:22:47 20° 146° (SE) 5,286 11.1 -47.7°
Drops below altitude 10° 02:34:08 10° 107° (ESE) 5,734 11.7 -46.3°
Sets 02:39:46 0° 93° (E) 6,387 12.3 -45.6°
